SAS842 LSZH-ENGM

Flight info

Callsign SAS842
Flight time 2h 10m
Altitude 36000
Route DEGES Z1 ETAGO DCT HAREM/N0441F370 DCT LOHRE DCT ELNAT/N0436F360 DCT DOSUR DCT PIPEX/N0432F370 M609 RIPAM
Aircraft A320/M-SDE3FGHIJ1RWXYZ/ALB1

Departure

Time 2026-05-07 11:17
Airport Zürich Airport (LSZH)

Arrival

Time 2026-05-07 13:27
Airport Oslo-Gardermoen International Airport (ENGM)
Time Latitude Longitude Altitude Speed Heading
2026-05-07 10:31 47.45432 8.55747 1412 ft 0 kts 185°
2026-05-07 11:06 47.45439 8.55748 1407 ft 4 kts 185°
2026-05-07 11:06 47.45466 8.55753 1410 ft 4 kts 185°
2026-05-07 11:07 47.45488 8.55756 1409 ft 4 kts 198°
2026-05-07 11:07 47.45503 8.55776 1412 ft 4 kts 262°
2026-05-07 11:07 47.45504 8.55813 1414 ft 4 kts 273°
2026-05-07 11:07 47.45501 8.55853 1415 ft 4 kts 277°
2026-05-07 11:08 47.45498 8.55889 1411 ft 2 kts 276°
2026-05-07 11:08 47.45498 8.55891 1410 ft 0 kts 276°
2026-05-07 11:10 47.45498 8.55888 1407 ft 1 kts 276°
2026-05-07 11:11 47.45501 8.55846 1412 ft 7 kts 276°
2026-05-07 11:11 47.45508 8.55751 1407 ft 12 kts 275°
2026-05-07 11:11 47.45519 8.55595 1410 ft 18 kts 276°
2026-05-07 11:11 47.45534 8.55383 1408 ft 23 kts 276°
2026-05-07 11:12 47.45597 8.55235 1400 ft 19 kts 333°
2026-05-07 11:12 47.45705 8.55158 1397 ft 17 kts 334°
2026-05-07 11:12 47.45822 8.55077 1403 ft 20 kts 335°
2026-05-07 11:12 47.45951 8.54988 1400 ft 22 kts 334°
2026-05-07 11:13 47.46102 8.54884 1385 ft 25 kts 335°
2026-05-07 11:13 47.46233 8.54793 1388 ft 18 kts 335°
2026-05-07 11:13 47.46356 8.54709 1384 ft 21 kts 335°
2026-05-07 11:13 47.46492 8.54616 1386 ft 22 kts 335°
2026-05-07 11:14 47.46629 8.54521 1386 ft 21 kts 335°
2026-05-07 11:14 47.46759 8.54436 1384 ft 20 kts 340°
2026-05-07 11:14 47.46889 8.54357 1379 ft 17 kts 334°
2026-05-07 11:14 47.46981 8.54258 1382 ft 13 kts 320°
2026-05-07 11:15 47.47026 8.54143 1384 ft 14 kts 275°
2026-05-07 11:15 47.47000 8.54019 1382 ft 11 kts 245°
2026-05-07 11:15 47.46969 8.54010 1384 ft 6 kts 156°
2026-05-07 11:15 47.46923 8.54040 1381 ft 9 kts 155°
2026-05-07 11:16 47.46821 8.54111 1382 ft 34 kts 155°
2026-05-07 11:16 47.46387 8.54409 1383 ft 99 kts 155°
2026-05-07 11:16 47.45600 8.54952 1393 ft 148 kts 155°
2026-05-07 11:16 47.44565 8.55665 1617 ft 169 kts 156°
2026-05-07 11:17 47.43509 8.56420 2231 ft 170 kts 147°
2026-05-07 11:17 47.42843 8.57880 2676 ft 184 kts 100°
2026-05-07 11:17 47.43090 8.59779 2948 ft 202 kts 55°
2026-05-07 11:17 47.43999 8.61441 3280 ft 221 kts 47°
2026-05-07 11:18 47.45034 8.63190 3984 ft 228 kts 47°
2026-05-07 11:18 47.45946 8.65128 4723 ft 235 kts 67°
2026-05-07 11:18 47.46268 8.67635 4985 ft 266 kts 86°
2026-05-07 11:18 47.46372 8.70429 5016 ft 276 kts 87°
2026-05-07 11:19 47.46445 8.73278 5014 ft 278 kts 88°
2026-05-07 11:19 47.46523 8.76132 5008 ft 278 kts 87°
2026-05-07 11:19 47.46611 8.78998 5146 ft 283 kts 87°
2026-05-07 11:19 47.46680 8.81918 6054 ft 285 kts 93°
2026-05-07 11:20 47.46373 8.84786 6902 ft 288 kts 103°
2026-05-07 11:20 47.45936 8.87691 7764 ft 291 kts 103°
2026-05-07 11:20 47.45499 8.90630 8592 ft 294 kts 103°
2026-05-07 11:20 47.45066 8.93596 9419 ft 297 kts 104°
2026-05-07 11:21 47.44633 8.96599 10207 ft 301 kts 104°
2026-05-07 11:21 47.44185 8.99726 10519 ft 322 kts 103°
2026-05-07 11:21 47.43707 9.03057 10843 ft 339 kts 103°
2026-05-07 11:21 47.43214 9.06494 11463 ft 344 kts 103°
2026-05-07 11:22 47.42722 9.09928 12130 ft 349 kts 103°
2026-05-07 11:22 47.42220 9.13444 12816 ft 352 kts 103°
2026-05-07 11:22 47.41921 9.17058 13501 ft 357 kts 91°
2026-05-07 11:22 47.42141 9.20733 14095 ft 364 kts 78°
2026-05-07 11:23 47.42906 9.24306 14675 ft 367 kts 65°
2026-05-07 11:23 47.44131 9.27622 15326 ft 369 kts 59°
2026-05-07 11:23 47.45422 9.30914 15967 ft 371 kts 59°
2026-05-07 11:23 47.46715 9.34226 16587 ft 374 kts 58°
2026-05-07 11:24 47.48254 9.37327 17201 ft 375 kts 46°
2026-05-07 11:24 47.50181 9.39910 17847 ft 375 kts 34°
2026-05-07 11:24 47.52391 9.41858 18449 ft 375 kts 22°
2026-05-07 11:24 47.54835 9.43205 19003 ft 376 kts 16°
2026-05-07 11:25 47.57325 9.44404 19573 ft 377 kts 13°
2026-05-07 11:25 47.59896 9.45155 20145 ft 377 kts
2026-05-07 11:25 47.62519 9.45350 20721 ft 378 kts 360°
2026-05-07 11:25 47.65152 9.45483 21294 ft 380 kts 360°
2026-05-07 11:26 47.67801 9.45615 21858 ft 382 kts 360°
2026-05-07 11:26 47.70463 9.45755 22398 ft 384 kts
2026-05-07 11:26 47.73148 9.45899 22947 ft 387 kts
2026-05-07 11:26 47.75847 9.46044 23494 ft 389 kts
2026-05-07 11:27 47.78524 9.46190 23945 ft 392 kts
2026-05-07 11:27 47.81257 9.46323 24360 ft 394 kts 359°
2026-05-07 11:27 47.83109 9.46365 24663 ft 395 kts 359°
2026-05-07 11:27 47.84930 9.46374 24956 ft 396 kts 359°
2026-05-07 11:29 48.01186 9.46207 27328 ft 408 kts 359°
2026-05-07 11:29 48.04028 9.46207 27720 ft 410 kts 359°
2026-05-07 11:29 48.06881 9.46206 28119 ft 411 kts 359°
2026-05-07 11:29 48.09754 9.46202 28514 ft 413 kts 359°
2026-05-07 11:30 48.12633 9.46198 28902 ft 415 kts 359°
2026-05-07 11:30 48.15524 9.46193 29285 ft 417 kts 359°
2026-05-07 11:30 48.18430 9.46190 29662 ft 419 kts 359°
2026-05-07 11:30 48.21352 9.46187 30030 ft 421 kts 359°
2026-05-07 11:31 48.24286 9.46185 30344 ft 423 kts 359°
2026-05-07 11:31 48.27202 9.46184 30597 ft 426 kts 359°
2026-05-07 11:31 48.30183 9.46188 30806 ft 431 kts 359°
2026-05-07 11:31 48.33189 9.46194 31072 ft 433 kts 359°
2026-05-07 11:32 48.39221 9.46204 31778 ft 434 kts 359°
2026-05-07 11:32 48.42251 9.46213 32135 ft 435 kts 358°
2026-05-07 11:32 48.45281 9.46220 32491 ft 436 kts 358°
2026-05-07 11:33 48.48322 9.46221 32837 ft 437 kts 358°
2026-05-07 11:33 48.51327 9.46220 33186 ft 438 kts 358°
2026-05-07 11:33 48.54379 9.46217 33542 ft 439 kts 358°
2026-05-07 11:33 48.57438 9.46193 33889 ft 440 kts 357°
2026-05-07 11:34 48.60502 9.46156 34201 ft 441 kts 357°
2026-05-07 11:34 48.63577 9.46113 34485 ft 442 kts 357°
2026-05-07 11:34 48.66650 9.46070 34757 ft 443 kts 357°
2026-05-07 11:34 48.69732 9.46027 35024 ft 443 kts 357°
2026-05-07 11:35 48.72818 9.45985 35291 ft 444 kts 357°
2026-05-07 11:35 48.75913 9.45907 35541 ft 444 kts 356°
2026-05-07 11:35 48.78961 9.45771 35784 ft 445 kts 356°
2026-05-07 11:35 48.82060 9.45595 35973 ft 446 kts 355°
2026-05-07 11:36 48.85164 9.45407 36027 ft 447 kts 355°
2026-05-07 11:36 48.91380 9.45047 36033 ft 447 kts 356°
2026-05-07 11:37 48.97595 9.44727 36038 ft 447 kts 356°
2026-05-07 11:37 49.03806 9.44421 36039 ft 447 kts 356°
2026-05-07 11:38 49.09974 9.44111 36042 ft 447 kts 356°
2026-05-07 11:38 49.16186 9.43801 36050 ft 447 kts 356°
2026-05-07 11:39 49.22401 9.43488 36035 ft 447 kts 356°
2026-05-07 11:39 49.27571 9.43217 36034 ft 447 kts 356°
2026-05-07 11:40 49.34797 9.42844 36039 ft 447 kts 356°
2026-05-07 11:40 49.41012 9.42523 36047 ft 447 kts 356°
2026-05-07 11:41 49.46182 9.42255 36042 ft 447 kts 356°
2026-05-07 11:41 49.52392 9.41928 36046 ft 446 kts 356°
2026-05-07 11:42 49.59606 9.41554 36053 ft 446 kts 356°
2026-05-07 11:42 49.64797 9.41895 36050 ft 447 kts
2026-05-07 11:43 49.70982 9.42890 36045 ft 447 kts
2026-05-07 11:43 49.77129 9.43877 36038 ft 447 kts
2026-05-07 11:44 49.83311 9.44863 36044 ft 447 kts
2026-05-07 11:44 49.89495 9.45857 36046 ft 447 kts
2026-05-07 11:45 49.95677 9.46855 36036 ft 447 kts
2026-05-07 11:45 50.01864 9.47853 36039 ft 447 kts
2026-05-07 11:46 50.08001 9.48847 36038 ft 447 kts
2026-05-07 11:46 50.14180 9.49909 36035 ft 447 kts
2026-05-07 11:47 50.20351 9.51014 36036 ft 446 kts
2026-05-07 11:47 50.26524 9.52132 36037 ft 446 kts
2026-05-07 11:48 50.32651 9.53230 36037 ft 446 kts
2026-05-07 11:48 50.38822 9.54315 36034 ft 446 kts
2026-05-07 11:49 50.44992 9.55402 36029 ft 446 kts
2026-05-07 11:49 50.51167 9.56500 36037 ft 446 kts
2026-05-07 11:50 50.57336 9.57612 36029 ft 446 kts
2026-05-07 11:50 50.63471 9.58719 36033 ft 447 kts
2026-05-07 11:51 50.69647 9.59825 36039 ft 447 kts
2026-05-07 11:51 50.75824 9.60949 36039 ft 447 kts
2026-05-07 11:52 50.82003 9.62071 36035 ft 447 kts
2026-05-07 11:52 50.88136 9.63182 36033 ft 447 kts
2026-05-07 11:53 50.94315 9.64306 36040 ft 447 kts
2026-05-07 11:53 51.00492 9.65429 36037 ft 447 kts
2026-05-07 11:54 51.06669 9.66550 36043 ft 447 kts
2026-05-07 11:54 51.12808 9.67682 36045 ft 447 kts
2026-05-07 11:55 51.18992 9.68817 36047 ft 447 kts
2026-05-07 11:55 51.25181 9.68509 36046 ft 445 kts 354°
2026-05-07 11:56 51.31357 9.67727 36044 ft 445 kts 354°
2026-05-07 11:56 51.37538 9.66951 36034 ft 446 kts 354°
2026-05-07 11:57 51.43677 9.66182 36048 ft 446 kts 354°
2026-05-07 11:57 51.49861 9.65397 36047 ft 445 kts 354°
2026-05-07 11:58 51.56042 9.64604 36051 ft 445 kts 354°
2026-05-07 11:58 51.62223 9.63820 36054 ft 445 kts 354°
2026-05-07 11:59 51.68350 9.63049 36064 ft 445 kts 354°
2026-05-07 11:59 51.74512 9.62266 36058 ft 444 kts 354°
2026-05-07 12:00 51.80664 9.61479 36067 ft 443 kts 354°
2026-05-07 12:00 51.86818 9.60682 36064 ft 443 kts 354°
2026-05-07 12:01 51.92925 9.59885 36066 ft 443 kts 354°
2026-05-07 12:01 51.99078 9.59084 36070 ft 443 kts 354°
2026-05-07 12:02 52.05227 9.58290 36069 ft 443 kts 354°
2026-05-07 12:02 52.11376 9.57498 36069 ft 443 kts 354°
2026-05-07 12:03 52.17483 9.56714 36080 ft 443 kts 354°
2026-05-07 12:03 52.23636 9.55913 36071 ft 443 kts 354°
2026-05-07 12:04 52.29778 9.55102 36072 ft 443 kts 354°
2026-05-07 12:04 52.35921 9.54279 36071 ft 443 kts 354°
2026-05-07 12:05 52.42066 9.53467 36073 ft 443 kts 354°
2026-05-07 12:05 52.48172 9.52673 36076 ft 444 kts 354°
2026-05-07 12:06 52.54320 9.51856 36072 ft 443 kts 354°
2026-05-07 12:06 52.60469 9.51039 36076 ft 443 kts 354°
2026-05-07 12:07 52.66608 9.50218 36073 ft 442 kts 354°
2026-05-07 12:07 52.72702 9.49408 36073 ft 442 kts 354°
2026-05-07 12:08 52.78834 9.48589 36077 ft 442 kts 354°
2026-05-07 12:08 52.84975 9.47760 36078 ft 443 kts 354°
2026-05-07 12:09 52.91114 9.46933 36084 ft 443 kts 354°
2026-05-07 12:09 52.97211 9.46112 36087 ft 443 kts 354°
2026-05-07 12:10 53.03347 9.45276 36087 ft 442 kts 354°
2026-05-07 12:10 53.09481 9.44442 36087 ft 442 kts 354°
2026-05-07 12:11 53.15612 9.43602 36084 ft 442 kts 354°
2026-05-07 12:11 53.21748 9.42758 36087 ft 442 kts 354°
2026-05-07 12:12 53.27840 9.41928 36090 ft 442 kts 354°
2026-05-07 12:12 53.33977 9.41092 36093 ft 443 kts 354°
2026-05-07 12:13 53.40108 9.40244 36090 ft 442 kts 354°
2026-05-07 12:13 53.46242 9.39399 36094 ft 442 kts 354°
2026-05-07 12:14 53.52329 9.38566 36091 ft 442 kts 354°
2026-05-07 12:14 53.58391 9.37718 36092 ft 442 kts 354°
2026-05-07 12:15 53.62667 9.37116 36097 ft 442 kts 354°
2026-05-07 12:16 53.67370 9.36460 36099 ft 442 kts 353°
2026-05-07 12:17 53.73494 9.35594 36094 ft 442 kts 354°
2026-05-07 12:17 53.79530 9.34746 36096 ft 442 kts 354°
2026-05-07 12:18 53.85652 9.33894 36094 ft 442 kts 354°
2026-05-07 12:18 53.91773 9.33029 36101 ft 441 kts 354°
2026-05-07 12:19 53.97851 9.32170 36098 ft 441 kts 353°
2026-05-07 12:19 54.03967 9.31288 36096 ft 441 kts 353°
2026-05-07 12:20 54.10077 9.30421 36099 ft 441 kts 354°
2026-05-07 12:20 54.16189 9.29564 36104 ft 440 kts 354°
2026-05-07 12:21 54.22287 9.28685 36101 ft 439 kts 354°
2026-05-07 12:21 54.28332 9.27810 36102 ft 439 kts 354°
2026-05-07 12:22 54.34418 9.26942 36097 ft 438 kts 354°
2026-05-07 12:22 54.40494 9.26066 36098 ft 438 kts 354°
2026-05-07 12:23 54.46560 9.25183 36101 ft 437 kts 354°
2026-05-07 12:23 54.52574 9.24295 36104 ft 436 kts 354°
2026-05-07 12:24 54.58620 9.23409 36103 ft 436 kts 354°
2026-05-07 12:24 54.64658 9.22532 36107 ft 436 kts 354°
2026-05-07 12:25 54.69681 9.21800 36113 ft 435 kts 354°
2026-05-07 12:25 54.74196 9.21127 36127 ft 434 kts 355°
2026-05-07 12:26 54.80206 9.20240 36123 ft 433 kts 355°
2026-05-07 12:26 54.86200 9.19368 36130 ft 432 kts 355°
2026-05-07 12:27 54.92200 9.18950 36136 ft 431 kts 359°
2026-05-07 12:27 54.98160 9.18892 36128 ft 431 kts 359°
2026-05-07 12:28 55.04161 9.18796 36124 ft 431 kts 359°
2026-05-07 12:28 55.10080 9.18608 36124 ft 431 kts 358°
2026-05-07 12:29 55.16039 9.18368 36127 ft 431 kts 358°
2026-05-07 12:29 55.22043 9.18145 36131 ft 431 kts 358°
2026-05-07 12:30 55.28040 9.17940 36128 ft 431 kts 358°
2026-05-07 12:30 55.34040 9.17739 36127 ft 431 kts 358°
2026-05-07 12:31 55.38604 9.17599 36127 ft 431 kts 358°
2026-05-07 12:31 55.42026 9.17486 36129 ft 431 kts 358°
2026-05-07 12:32 55.48016 9.17254 36131 ft 431 kts 357°
2026-05-07 12:32 55.54011 9.17018 36127 ft 431 kts 358°
2026-05-07 12:33 55.62955 9.16710 36128 ft 431 kts 358°
2026-05-07 12:33 55.68947 9.16512 36125 ft 430 kts 358°
2026-05-07 12:34 55.74933 9.16303 36127 ft 430 kts 358°
2026-05-07 12:34 55.80924 9.16081 36130 ft 430 kts 358°
2026-05-07 12:35 55.86874 9.15858 36122 ft 430 kts 358°
2026-05-07 12:35 55.92859 9.15630 36116 ft 430 kts 358°
2026-05-07 12:36 55.98845 9.15414 36121 ft 430 kts 357°
2026-05-07 12:36 56.04833 9.15215 36108 ft 430 kts 357°
2026-05-07 12:37 56.10772 9.15006 36098 ft 430 kts 357°
2026-05-07 12:37 56.16751 9.14771 36103 ft 429 kts 357°
2026-05-07 12:38 56.22720 9.14543 36102 ft 429 kts 357°
2026-05-07 12:38 56.28693 9.14329 36108 ft 429 kts 357°
2026-05-07 12:39 56.34619 9.14114 36104 ft 429 kts 357°
2026-05-07 12:39 56.40581 9.13891 36104 ft 429 kts 356°
2026-05-07 12:40 56.46546 9.13672 36098 ft 429 kts 357°
2026-05-07 12:40 56.52498 9.13451 36109 ft 429 kts 356°
2026-05-07 12:41 56.58459 9.13226 36105 ft 429 kts 356°
2026-05-07 12:41 56.64427 9.13009 36102 ft 429 kts 356°
2026-05-07 12:42 56.70351 9.12781 36113 ft 429 kts 356°
2026-05-07 12:42 56.76321 9.12549 36111 ft 429 kts 356°
2026-05-07 12:43 56.82286 9.12323 36114 ft 429 kts 356°
2026-05-07 12:43 56.88257 9.12101 36113 ft 429 kts 356°
2026-05-07 12:44 56.94184 9.11874 36118 ft 429 kts 356°
2026-05-07 12:44 57.00151 9.11650 36119 ft 429 kts 356°
2026-05-07 12:45 57.06122 9.11419 36139 ft 429 kts 355°
2026-05-07 12:45 57.12088 9.11197 36129 ft 429 kts 355°
2026-05-07 12:46 57.18018 9.10970 36128 ft 429 kts 355°
2026-05-07 12:46 57.23965 9.10730 36125 ft 429 kts 355°
2026-05-07 12:47 57.29932 9.10494 36129 ft 429 kts 355°
2026-05-07 12:47 57.35860 9.10270 36147 ft 429 kts 355°
2026-05-07 12:48 57.41830 9.10040 36144 ft 429 kts 355°
2026-05-07 12:48 57.47797 9.09810 36144 ft 429 kts 355°
2026-05-07 12:49 57.53767 9.09582 36141 ft 429 kts 355°
2026-05-07 12:49 57.59731 9.09342 36136 ft 429 kts 355°
2026-05-07 12:50 57.65656 9.09097 36159 ft 429 kts 354°
2026-05-07 12:50 57.71624 9.08851 36155 ft 429 kts 354°
2026-05-07 12:51 57.77589 9.08614 36149 ft 429 kts 354°
2026-05-07 12:51 57.83518 9.08385 36150 ft 429 kts 354°
2026-05-07 12:52 57.89483 9.08148 36169 ft 429 kts 354°
2026-05-07 12:52 57.95446 9.07906 36163 ft 429 kts 354°
2026-05-07 12:53 58.01414 9.07661 36156 ft 429 kts 354°
2026-05-07 12:53 58.07374 9.07417 36153 ft 429 kts 354°
2026-05-07 12:54 58.13295 9.07178 36153 ft 429 kts 354°
2026-05-07 12:54 58.19258 9.06940 36170 ft 428 kts 354°
2026-05-07 12:55 58.25219 9.06704 36167 ft 428 kts 354°
2026-05-07 12:55 58.31172 9.06458 36158 ft 428 kts 354°
2026-05-07 12:56 58.37085 9.06211 36152 ft 428 kts 354°
2026-05-07 12:56 58.43033 9.05965 36148 ft 428 kts 354°
2026-05-07 12:57 58.48985 9.05715 36149 ft 428 kts 354°
2026-05-07 12:57 58.54935 9.05469 36145 ft 428 kts 354°
2026-05-07 12:58 58.60881 9.05222 36143 ft 428 kts 354°
2026-05-07 12:58 58.66792 9.04970 36135 ft 428 kts 354°
2026-05-07 12:59 58.72741 9.04727 36155 ft 428 kts 353°
2026-05-07 12:59 58.78689 9.04494 36144 ft 428 kts 354°
2026-05-07 13:00 58.81674 9.04837 35910 ft 433 kts
2026-05-07 13:00 58.84605 9.06263 35644 ft 436 kts 14°
2026-05-07 13:00 58.87375 9.08706 35191 ft 441 kts 25°
2026-05-07 13:00 58.89866 9.12082 34703 ft 446 kts 33°
2026-05-07 13:01 58.92283 9.15827 34187 ft 445 kts 33°
2026-05-07 13:01 58.94697 9.19563 33622 ft 444 kts 33°
2026-05-07 13:01 58.97102 9.23281 33112 ft 441 kts 32°
2026-05-07 13:01 58.99496 9.26971 32637 ft 438 kts 32°
2026-05-07 13:02 59.01877 9.30648 32081 ft 437 kts 32°
2026-05-07 13:02 59.04245 9.34316 31592 ft 434 kts 32°
2026-05-07 13:02 59.06601 9.37968 31094 ft 432 kts 32°
2026-05-07 13:02 59.08946 9.41611 30616 ft 430 kts 32°
2026-05-07 13:03 59.11244 9.45187 30149 ft 428 kts 32°
2026-05-07 13:03 59.13563 9.48805 29639 ft 425 kts 32°
2026-05-07 13:03 59.15858 9.52402 29191 ft 422 kts 32°
2026-05-07 13:03 59.18132 9.55973 28772 ft 418 kts 32°
2026-05-07 13:04 59.20481 9.59184 28396 ft 409 kts 26°
2026-05-07 13:04 59.22850 9.62212 28014 ft 405 kts 26°
2026-05-07 13:04 59.25201 9.65224 27649 ft 403 kts 26°
2026-05-07 13:04 59.27546 9.68240 27219 ft 402 kts 26°
2026-05-07 13:05 59.29844 9.71199 26831 ft 400 kts 26°
2026-05-07 13:05 59.32201 9.74029 26428 ft 393 kts 19°
2026-05-07 13:05 59.34685 9.76018 26157 ft 378 kts
2026-05-07 13:05 59.37181 9.77408 25893 ft 371 kts
2026-05-07 13:06 59.39651 9.78781 25337 ft 367 kts
2026-05-07 13:06 59.42075 9.80139 24843 ft 356 kts
2026-05-07 13:06 59.44415 9.81462 24451 ft 344 kts
2026-05-07 13:06 59.46673 9.82738 24079 ft 332 kts
2026-05-07 13:07 59.48840 9.83953 23719 ft 326 kts
2026-05-07 13:07 59.51028 9.85161 23310 ft 326 kts
2026-05-07 13:07 59.53213 9.86362 22951 ft 326 kts
2026-05-07 13:07 59.55387 9.87566 22578 ft 324 kts
2026-05-07 13:08 59.57557 9.88779 22217 ft 325 kts
2026-05-07 13:08 59.59727 9.90001 21846 ft 323 kts
2026-05-07 13:08 59.61881 9.91222 21482 ft 321 kts
2026-05-07 13:08 59.64020 9.92431 21119 ft 320 kts
2026-05-07 13:09 59.66158 9.93635 20741 ft 319 kts
2026-05-07 13:09 59.68290 9.94827 20376 ft 319 kts
2026-05-07 13:09 59.70427 9.96019 20000 ft 319 kts
2026-05-07 13:09 59.72537 9.97197 19632 ft 319 kts
2026-05-07 13:10 59.74675 9.98391 19250 ft 319 kts
2026-05-07 13:10 59.76813 9.99586 18876 ft 320 kts
2026-05-07 13:10 59.78956 10.00785 18498 ft 320 kts
2026-05-07 13:10 59.81104 10.01993 18093 ft 321 kts
2026-05-07 13:11 59.83255 10.03201 17702 ft 320 kts 10°
2026-05-07 13:11 59.85389 10.04402 17321 ft 319 kts 10°
2026-05-07 13:11 59.87485 10.05786 17075 ft 317 kts 21°
2026-05-07 13:11 59.89354 10.08329 16804 ft 339 kts 36°
2026-05-07 13:12 59.91223 10.11442 16492 ft 360 kts 36°
2026-05-07 13:12 59.93117 10.14665 16101 ft 365 kts 37°
2026-05-07 13:12 59.95029 10.17971 15702 ft 364 kts 38°
2026-05-07 13:12 59.96935 10.21280 15428 ft 362 kts 38°
2026-05-07 13:13 59.98828 10.24565 15093 ft 360 kts 38°
2026-05-07 13:13 60.00723 10.27844 14642 ft 360 kts 38°
2026-05-07 13:13 60.02615 10.31109 14132 ft 359 kts 38°
2026-05-07 13:13 60.04504 10.34367 13504 ft 359 kts 38°
2026-05-07 13:14 60.06399 10.37632 12861 ft 359 kts 38°
2026-05-07 13:14 60.08292 10.40899 12210 ft 359 kts 38°
2026-05-07 13:14 60.10143 10.44113 11691 ft 355 kts 39°
2026-05-07 13:14 60.11996 10.47346 11178 ft 352 kts 39°
2026-05-07 13:15 60.13829 10.50550 10666 ft 348 kts 39°
2026-05-07 13:15 60.15644 10.53717 10165 ft 344 kts 39°
2026-05-07 13:15 60.17437 10.56846 9627 ft 335 kts 39°
2026-05-07 13:15 60.19143 10.59830 9227 ft 316 kts 39°
2026-05-07 13:16 60.20754 10.62651 8824 ft 300 kts 39°
2026-05-07 13:16 60.22293 10.65350 8425 ft 287 kts 39°
2026-05-07 13:16 60.23776 10.67953 8030 ft 281 kts 39°
2026-05-07 13:16 60.25242 10.70527 7639 ft 278 kts 40°
2026-05-07 13:17 60.26676 10.73051 7259 ft 277 kts 40°
2026-05-07 13:17 60.28133 10.75616 6876 ft 278 kts 40°
2026-05-07 13:17 60.29574 10.78154 6497 ft 273 kts 40°
2026-05-07 13:17 60.30999 10.80665 6102 ft 271 kts 40°
2026-05-07 13:18 60.32406 10.83147 5992 ft 264 kts 40°
2026-05-07 13:18 60.33737 10.85499 6004 ft 246 kts 40°
2026-05-07 13:18 60.35006 10.87741 6011 ft 241 kts 40°
2026-05-07 13:18 60.36264 10.89967 6009 ft 240 kts 40°
2026-05-07 13:19 60.37520 10.92197 5882 ft 241 kts 40°
2026-05-07 13:19 60.38771 10.94423 5766 ft 239 kts 40°
2026-05-07 13:19 60.39999 10.96616 5638 ft 238 kts 40°
2026-05-07 13:19 60.41234 10.98829 5493 ft 238 kts 40°
2026-05-07 13:20 60.42475 11.01049 5376 ft 239 kts 40°
2026-05-07 13:20 60.43748 11.03318 5243 ft 246 kts 40°
2026-05-07 13:20 60.44931 11.05812 5117 ft 247 kts 59°
2026-05-07 13:20 60.45393 11.09126 5007 ft 247 kts 92°
2026-05-07 13:21 60.44906 11.12420 4973 ft 248 kts 124°
2026-05-07 13:21 60.43831 11.15126 4840 ft 247 kts 131°
2026-05-07 13:21 60.42714 11.17751 4712 ft 244 kts 131°
2026-05-07 13:21 60.41622 11.20303 4573 ft 235 kts 131°
2026-05-07 13:22 60.40428 11.22373 4433 ft 225 kts 155°
2026-05-07 13:22 60.38951 11.23030 4299 ft 215 kts 185°
2026-05-07 13:22 60.37504 11.22391 4150 ft 211 kts 198°
2026-05-07 13:22 60.36125 11.21569 4006 ft 204 kts 198°
2026-05-07 13:23 60.34782 11.20776 3793 ft 196 kts 198°
2026-05-07 13:23 60.33500 11.20026 3507 ft 189 kts 198°
2026-05-07 13:23 60.32241 11.19291 3249 ft 188 kts 197°
2026-05-07 13:23 60.30993 11.18563 2991 ft 186 kts 197°
2026-05-07 13:24 60.29750 11.17839 2736 ft 186 kts 198°
2026-05-07 13:24 60.28520 11.17123 2483 ft 180 kts 197°
2026-05-07 13:24 60.27356 11.16447 2233 ft 168 kts 197°
2026-05-07 13:24 60.26265 11.15814 2020 ft 158 kts 198°
2026-05-07 13:25 60.25262 11.15232 1815 ft 144 kts 198°
2026-05-07 13:25 60.24317 11.14683 1603 ft 140 kts 197°
2026-05-07 13:25 60.23399 11.14153 1400 ft 139 kts 196°
2026-05-07 13:25 60.22461 11.13608 1197 ft 139 kts 197°
2026-05-07 13:26 60.21533 11.13072 1020 ft 138 kts 198°
2026-05-07 13:26 60.20623 11.12536 836 ft 138 kts 198°
2026-05-07 13:26 60.19703 11.12009 692 ft 133 kts 198°
2026-05-07 13:26 60.18949 11.11567 684 ft 89 kts 197°
2026-05-07 13:27 60.18548 11.11322 682 ft 31 kts 216°
2026-05-07 13:27 60.18442 11.11122 683 ft 15 kts 251°
2026-05-07 13:27 60.18441 11.11023 682 ft 6 kts 281°
2026-05-07 13:27 60.18447 11.10977 681 ft 4 kts 284°
2026-05-07 13:28 60.18457 11.10907 680 ft 7 kts 286°
2026-05-07 13:28 60.18480 11.10784 679 ft 11 kts 310°
2026-05-07 13:28 60.18556 11.10783 682 ft 13 kts 16°
2026-05-07 13:28 60.18650 11.10836 682 ft 15 kts 16°
2026-05-07 13:29 60.18762 11.10901 683 ft 18 kts 16°
2026-05-07 13:29 60.18892 11.10976 683 ft 20 kts 16°
2026-05-07 13:29 60.19035 11.11059 683 ft 21 kts 16°
2026-05-07 13:29 60.19143 11.11109 684 ft 14 kts 353°
2026-05-07 13:30 60.19191 11.10947 679 ft 16 kts 283°
2026-05-07 13:30 60.19223 11.10722 682 ft 18 kts 286°
2026-05-07 13:30 60.19252 11.10519 681 ft 9 kts 286°
2026-05-07 13:30 60.19266 11.10471 681 ft 4 kts 326°
2026-05-07 13:31 60.19295 11.10485 682 ft 5 kts 15°
2026-05-07 13:31 60.19312 11.10494 685 ft 2 kts 15°
2026-05-07 13:31 60.19314 11.10495 685 ft 0 kts 15°